User: anonymous   Login
Location: Dehesa de la Cepeda
(40.6574°N, 4.3013°W)
Time: 02:08:00
(UTC+00:00)
Language:

Cosmos 1315 Rocket - Orbit

View from above orbital plane
View from above orbital plane
View from above satellite
View from above satellite

Ground track
Ground track

The orbit data is extracted from the following two-line orbital elements,

1 12904U 81103B   20272.56757916 +.00000416 +00000-0 +26750-4 0  9993
2 12904 081.1799 345.1178 0029072 077.7603 282.6873 15.05846787673072
Epoch (UTC): 28 September 2020 13:37:18
Eccentricity: 0.0029072
inclination: 81.1799°
perigee height: 529 km
apogee height: 569 km
right ascension of ascending node: 345.1178°
argument of perigee: 77.7603°
revolutions per day: 15.05846787
mean anomaly at epoch: 282.6873°
orbit number at epoch: 67307

The dashed part of the orbit path shows where the satellite is in the earth's shadow,  

DLR